Notices

What's New in latest Release from April 7th, 2021:

- Updated Glossary, including Speed of Maximum Gust, and Total Hourly Precipitation

- Updated national and regional climate services offices contacts and prices information

- Addition of station inventory lists for 1981-2010, 1971-2000, and 1961-1990 Normals.

If you haven't already, please take our survey and provide feedback about our website: https://eccc.sondage-survey.ca/f/LanguageSelection.aspx?s=442ca660-fcf1-47c0-95a9-59707d6fd709

Hourly Data Report for January 09, 2006

TORONTO CITY
ONTARIO

43°40'00.000" N
79°24'00.000" W
112.50 m
6158355
71508
XTO

Download Data

Hourly Data (January 2006)
Hourly Data Report for January 9, 2006
TIME
LST
Temp Definition
°C
Dew Point Definition
°C
Rel Hum Definition
%
Precip. Amount Definition
mm

Wind Dir Definition
10's deg

Wind Spd Definition
km/h
Visibility Definition
km
Stn Press Definition
kPa
Hmdx Definition


Wind Chill Definition


Weather Definition


00:00 3.2 0.2 81   LegendMM LegendMM   99.19     LegendNANA
01:00 3.2 0.4 82   LegendMM LegendMM   99.09     LegendNANA
02:00 3.2 0.6 83   LegendMM LegendMM   99.01     LegendNANA
03:00 3.5 1.0 84   LegendMM LegendMM   98.97     LegendNANA
04:00 3.5 1.3 85   LegendMM LegendMM   98.95     LegendNANA
05:00 2.6 1.0 89   LegendMM LegendMM   98.95     LegendNANA
06:00 2.2 1.1 92   LegendMM LegendMM   99.03     LegendNANA
07:00 2.0 1.1 94   LegendMM LegendMM   99.13     LegendNANA
08:00 2.2 1.1 92   LegendMM LegendMM   99.31     LegendNANA
09:00 1.8 0.4 90   LegendMM LegendMM   99.54     LegendNANA
10:00 2.1 0.5 89   LegendMM LegendMM   99.75     LegendNANA
11:00 3.0 0.5 84   LegendMM LegendMM   99.91     LegendNANA
12:00 3.2 0.2 81   LegendMM LegendMM   100.01     LegendNANA
13:00 3.5 0.4 80   LegendMM LegendMM   100.13     LegendNANA
14:00 3.5 0.0 78   LegendMM LegendMM   100.21     LegendNANA
15:00 3.6 -0.5 75   LegendMM LegendMM   100.40     LegendNANA
16:00 3.5 -0.9 73   LegendMM LegendMM   100.53     LegendNANA
17:00 3.6 -1.0 72   LegendMM LegendMM   100.66     LegendNANA
18:00 3.1 -1.2 73   LegendMM LegendMM   100.81     LegendNANA
19:00 2.6 -0.3 81   LegendMM LegendMM   100.90     LegendNANA
20:00 2.4 0.3 86   LegendMM LegendMM   100.97     LegendNANA
21:00 2.8 0.8 87   LegendMM LegendMM   101.03     LegendNANA
22:00 2.9 0.6 85   LegendMM LegendMM   101.10     LegendNANA
23:00 2.8 -0.3 80   LegendMM LegendMM   101.16     LegendNANA

Notes on Data Quality.

Legend

  • E = Estimated
  • M = Missing
  • NA = Not Available*
  • [empty] = Indicates an unobserved value
Date modified: